Location: Coed Ely
(51.5661°N, 3.4150°W)
Time: 01:59:27
(UTC+00:00)

CZ-4C R/B - Pass Details

Date: 28 January 2021
Orbit: 617 x 1384 km, 63.4° (Epoch: 24 February)

Event Time Altitude Azimuth Distance (km) Brightness Sun altitude
Rises 17:58:31 0° 283° (WNW) 3,329 6.5 -9.8°
Reaches altitude 10° 18:01:07 10° 295° (WNW) 2,509 5.4 -10.1°
Maximum altitude 18:06:14 29° 355° (N) 1,703 3.7 -10.9°
Enters shadow 18:11:46 12° 52° (NE) 2,838 4.4 -11.7°
